This demonstration page uses our WeatherBlox Daily Observations layout. Learn more.

Left ArrowRight Arrow

38.88101, -77.10428

Hourly Observations for March 24, 2019

Temp ( °F °C ) Dew Point ( °F °C ) Humidity (%) Winds ( mph kmh ) Pressure ( in mb ) Visibility ( mi km ) Precip ( " mm )
12:52 am 00:52 Clear 44 6.7 25 -3.9 47 47 SSW 3 6 30.26 1025 10 16.0934 0 0
1:52 am 01:52 Clear 44 6.7 19 -7.2 37 37 Calm 30.26 1025 10 16.0934 0 0
2:52 am 02:52 Clear 40 4.4 22 -5.6 49 49 W 6 9 30.28 1025 10 16.0934 0 0
3:52 am 03:52 Clear 40 4.4 22 -5.6 49 49 SSW 3 6 30.27 1025 10 16.0934 0 0
4:52 am 04:52 Clear 37 2.8 23 -5 57 57 SSW 6 9 30.27 1025 10 16.0934 0 0
5:52 am 05:52 Clear 36 2.2 24 -4.4 62 62 SW 5 7 30.28 1026 10 16.0934 0 0
6:52 am 06:52 Mostly Clear 35 1.7 24 -4.4 64 64 SSW 7 11 30.3 1026 10 16.0934 0 0
7:52 am 07:52 Partly Cloudy 37 2.8 28 -2.2 70 70 SSW 6 9 30.32 1027 10 16.0934 0 0
8:52 am 08:52 Mostly Cloudy 42 5.6 33 0.6 71 71 S 7 11 30.32 1027 10 16.0934 0 0
9:52 am 09:52 Mostly Cloudy 46 7.8 33 0.6 61 61 S 8 13 30.31 1027 10 16.0934 0 0
10:52 am 10:52 Mostly Cloudy 51 10.6 29 -1.7 43 43 S 8 13 30.3 1026 10 16.0934 0 0
11:52 am 11:52 Mostly Cloudy 57 13.9 28 -2.2 33 33 S 10 17 30.28 1025 10 16.0934 0 0
12:52 pm 12:52 Mostly Cloudy 60 15.6 24 -4.4 25 25 S 8 13 30.24 1024 10 16.0934 0 0
1:52 pm 13:52 Mostly Cloudy 62 16.7 25 -3.9 24 24 S 12 19 30.2 1023 10 16.0934 0 0
2:52 pm 14:52 Mostly Cloudy 61 16.1 24 -4.4 24 24 SSE 13 20 30.15 1021 10 16.0934 0 0
3:52 pm 15:52 Mostly Cloudy 62 16.7 24 -4.4 23 23 S 12 19 30.11 1020 10 16.0934 0 0
4:52 pm 16:52 Mostly Cloudy 66 18.9 21 -6.1 18 18 SSW 13 20 30.1 1019 10 16.0934 0 0
5:52 pm 17:52 Cloudy 65 18.3 22 -5.6 19 19 SSW 10 17 30.09 1019 10 16.0934 0 0
6:52 pm 18:52 Cloudy 61 16.1 28 -2.2 29 29 S 6 9 30.08 1019 10 16.0934 0 0
7:52 pm 19:52 Cloudy 62 16.7 24 -4.4 23 23 S 5 7 30.08 1019 10 16.0934 0 0
8:52 pm 20:52 Cloudy 57 13.9 33 0.6 41 41 SSE 3 6 30.07 1018 10 16.0934 0 0
9:52 pm 21:52 Cloudy 57 13.9 32 0 39 39 Calm 30.09 1019 10 16.0934 0 0
10:52 pm 22:52 Cloudy 57 13.9 32 0 39 39 S 3 6 30.08 1019 10 16.0934 0 0
11:52 pm 23:52 Cloudy 54 12.2 34 1.1 47 47 ESE 3 6 30.06 1018 10 16.0934 0 0

Powered by AerisWeather